Location: Preissac
(48.4072°N, 78.3618°W)
Time: 11:25:17
(UTC-04:00)

ISS - Visible Passes

Search period start: 25 September 2022 00:00
Search period end: 05 October 2022 00:00
Orbit: 414 x 417 km, 51.6° (Epoch: 25 September)

Date Brightness Start Highest point End Pass type
(mag) Time Alt. Az. Time Alt. Az. Time Alt. Az.
25 Sep -3.3 20:45:52 10° WNW 20:49:10 52° N 20:49:51 43° NE visible
25 Sep -0.3 22:22:40 10° WNW 22:22:43 10° WNW 22:22:43 10° WNW visible
26 Sep -3.1 19:57:10 10° WNW 20:00:26 47° N 20:03:00 15° ENE visible
26 Sep -1.9 21:33:58 10° WNW 21:35:53 31° WNW 21:35:53 31° WNW visible
27 Sep -3.9 20:45:18 10° WNW 20:48:40 76° NNE 20:49:02 65° ENE visible
28 Sep -3.5 19:56:36 10° WNW 19:59:56 60° NNE 20:02:13 18° E visible
28 Sep -1.6 21:33:26 10° WNW 21:35:06 24° W 21:35:06 24° W visible
29 Sep -3.6 20:44:38 10° WNW 20:47:58 59° SSW 20:48:17 55° S visible
30 Sep -3.8 19:55:54 10° WNW 19:59:16 85° SSW 20:01:32 19° ESE visible
30 Sep -1.0 21:33:13 10° W 21:34:25 16° WSW 21:34:25 16° WSW visible
01 Oct -2.2 20:44:07 10° W 20:47:02 28° SW 20:47:42 26° SSW visible
02 Oct -2.8 19:55:12 10° WNW 19:58:24 42° SSW 20:01:04 14° SE visible
03 Oct -1.0 20:44:16 10° WSW 20:45:52 13° SW 20:47:25 10° SSW visible
04 Oct -1.4 19:54:45 10° W 19:57:17 20° SW 19:59:49 10° S visible
